W5ZYX Weather Reports


Display with metric or nautical units.
time (UTC)temp
F
wind
direction
speed
MPH
gust
MPH
rain 1hr
in
rain 24hr
in
rain mn
in
humidity
%
barometer
mb
20260904065037 77 0 0.0 0.0 0.00 0.62 0.00 93 1014.1
20260904064604 77 0 0.0 0.0 0.00 0.62 0.00 93 1014.1
20260904064037 77 0 0.0 0.0 0.00 0.62 0.00 93 1014.1
20260904063541 77 0 0.0 0.0 0.00 0.62 0.00 93 1014.2
20260904063109 77 0 0.0 0.0 0.00 0.62 0.00 93 1014.2
20260904062538 77 0 0.0 0.0 0.00 0.62 0.00 93 1014.2
20260904062036 77 0 0.0 0.0 0.00 0.62 0.00 93 1014.1
20260904061600 77 0 0.0 0.0 0.00 0.62 0.00 93 1014.1
20260904061038 77 0 0.0 0.0 0.00 0.62 0.00 93 1014.2
20260904060536 77 0 0.0 0.0 0.00 0.62 0.00 93 1014.3
20260904060127 77 0 0.0 0.0 0.00 0.62 0.00 93 1014.3
20260904055536 77 0 0.0 0.0 0.00 0.62 0.00 93 1014.2
20260904055036 77 0 0.0 0.0 0.00 0.62 0.00 93 1014.3
20260904054633 77 0 0.0 0.0 0.00 0.62 0.00 93 1014.2
20260904054038 77 0 0.0 0.0 0.00 0.62 0.00 93 1014.2
20260904053537 77 0 0.0 0.0 0.00 0.62 0.00 93 1014.0
20260904053055 77 0 0.0 0.0 0.00 0.62 0.00 93 1013.8
20260904052537 77 0 0.0 0.0 0.00 0.62 0.00 93 1013.8
20260904052037 77 0 0.0 0.0 0.00 0.62 0.00 93 1013.9
20260904051604 77 0 0.0 0.0 0.00 0.62 0.00 93 1013.9
20260904051039 77 0 0.0 0.0 0.00 0.62 0.00 92 1014.0
20260904050536 77 0 0.0 0.0 0.00 0.62 0.00 92 1014.1
20260904045536 77 0 0.0 0.0 0.00 0.62 0.62 92 1014.1
20260904045036 77 0 0.0 0.0 0.00 0.62 0.62 92 1014.0
20260904044600 78 0 0.0 0.0 0.00 0.62 0.62 92 1014.0
20260904044037 77 0 0.0 0.0 0.00 0.62 0.62 92 1014.0
20260904043537 77 0 0.0 0.0 0.00 0.62 0.62 92 1014.0
20260904043105 77 0 0.0 0.0 0.00 0.62 0.62 92 1014.0
20260904042538 77 0 0.0 0.0 0.00 0.62 0.62 92 1013.9
20260904042037 77 0 0.0 0.0 0.00 0.62 0.62 92 1013.9
20260904041607 77 0 0.0 0.0 0.00 0.62 0.62 92 1013.9
20260904041036 78 0 0.0 0.0 0.00 0.62 0.62 92 1013.9
20260904040536 78 0 0.0 0.0 0.00 0.62 0.62 92 1013.8
20260904040106 77 0 0.0 0.0 0.00 0.62 0.62 91 1013.9
20260904035536 77 0 0.0 0.0 0.00 0.62 0.62 91 1013.9
20260904035038 78 0 0.0 0.0 0.00 0.62 0.62 91 1013.9
20260904034558 77 0 0.0 0.0 0.00 0.62 0.62 91 1013.9
20260904034037 78 0 0.0 0.0 0.00 0.62 0.62 91 1014.0
20260904033539 78 0 0.0 2.0 0.00 0.62 0.62 91 1014.0
20260904033053 78 0 0.0 2.0 0.00 0.62 0.62 91 1014.1
20260904032541 78 113 0.0 2.0 0.00 0.62 0.62 91 1014.0
20260904032040 78 0 0.0 1.0 0.00 0.62 0.62 91 1014.0
20260904031606 78 0 0.0 2.0 0.00 0.62 0.62 91 1013.9
20260904031037 78 0 0.0 3.0 0.00 0.62 0.62 91 1013.9
20260904030536 78 113 0.0 3.0 0.00 0.62 0.62 91 1013.8
20260904025539 78 113 1.0 3.0 0.00 0.62 0.62 91 1013.7
20260904025036 78 113 1.0 4.0 0.00 0.62 0.62 91 1013.7
20260904024559 78 113 1.0 6.0 0.00 0.62 0.62 91 1013.7
20260904024037 78 0 0.0 6.0 0.00 0.62 0.62 91 1013.7
20260904023539 78 97 1.0 4.0 0.00 0.62 0.62 91 1013.7
20260904023055 78 0 1.0 4.0 0.00 0.62 0.62 91 1013.6
20260904022537 78 139 1.0 4.0 0.00 0.62 0.62 91 1013.5
20260904022037 78 139 1.0 3.0 0.00 0.62 0.62 91 1013.5
20260904021608 78 139 0.0 4.0 0.00 0.62 0.62 90 1013.4
20260904021038 78 139 1.0 4.0 0.00 0.62 0.62 90 1013.4
20260904020537 78 139 1.0 5.0 0.00 0.62 0.62 90 1013.3
20260904020104 78 139 1.0 7.0 0.00 0.62 0.62 90 1013.2
20260904015536 78 139 3.0 7.0 0.00 0.62 0.62 90 1013.1
20260904015040 78 127 3.0 7.0 0.00 0.62 0.62 90 1013.0
20260904014620 79 134 4.0 9.0 0.00 0.62 0.62 90 1013.0
20260904014036 79 146 3.0 9.0 0.00 0.62 0.62 90 1012.9
20260904013538 79 154 4.0 9.0 0.00 0.62 0.62 90 1012.9
20260904013110 79 150 3.0 8.0 0.00 0.62 0.62 91 1012.9
20260904012539 79 142 4.0 8.0 0.00 0.62 0.62 91 1012.9
20260904012040 79 114 3.0 6.0 0.00 0.62 0.62 92 1012.9
20260904011601 79 107 3.0 6.0 0.00 0.62 0.62 92 1012.8
20260904011039 79 142 2.0 5.0 0.00 0.62 0.62 92 1012.8
20260904010536 79 130 2.0 4.0 0.00 0.62 0.62 92 1012.7
20260904010115 79 144 2.0 4.0 0.00 0.62 0.62 91 1012.8
20260904005537 79 144 2.0 4.0 0.00 0.62 0.62 91 1012.8
20260904005037 79 144 0.0 2.0 0.00 0.62 0.62 91 1012.8
20260904004610 79 144 0.0 2.0 0.00 0.62 0.62 91 1012.9
20260904004037 79 0 0.0 0.0 0.00 0.62 0.62 90 1012.9
20260904003536 79 0 0.0 2.0 0.00 0.62 0.62 90 1012.8
20260904003057 79 0 0.0 3.0 0.00 0.62 0.62 90 1012.8
20260904002537 79 0 0.0 4.0 0.00 0.62 0.62 90 1012.8
20260904002038 79 0 1.0 5.0 0.00 0.62 0.62 89 1012.7
20260904001602 79 153 3.0 6.0 0.00 0.62 0.62 89 1012.7
20260904001036 79 119 3.0 7.0 0.00 0.62 0.62 89 1012.7
20260904000536 80 118 3.0 7.0 0.00 0.62 0.62 89 1012.7
20260903235537 80 153 2.0 7.0 0.00 0.62 0.62 89 1012.7
20260903235037 80 114 2.0 7.0 0.00 0.62 0.62 89 1012.8
20260903234600 80 130 1.0 6.0 0.00 0.62 0.62 89 1012.7
20260903234037 80 126 3.0 7.0 0.00 0.62 0.62 89 1012.7
20260903233537 80 116 3.0 9.0 0.00 0.62 0.62 89 1012.7
20260903233104 80 114 4.0 9.0 0.00 0.62 0.62 89 1012.7
20260903232537 80 148 4.0 8.0 0.00 0.62 0.62 90 1012.8
20260903232037 80 142 2.0 9.0 0.00 0.62 0.62 91 1012.7
20260903231604 80 147 4.0 9.0 0.00 0.62 0.62 91 1012.8
20260903231036 80 152 3.0 8.0 0.00 0.62 0.62 92 1012.8
20260903230537 80 171 3.0 8.0 0.00 0.62 0.62 93 1012.9
20260903230105 80 188 3.0 8.0 0.00 0.62 0.62 93 1012.9
20260903225537 80 115 2.0 8.0 0.00 0.62 0.62 94 1012.9
20260903225039 80 146 3.0 8.0 0.00 0.62 0.62 94 1012.9
20260903224604 80 175 2.0 8.0 0.00 0.62 0.62 94 1012.9
20260903224037 80 142 3.0 10.0 0.00 0.62 0.62 95 1012.9
20260903223537 80 134 6.0 10.0 0.00 0.62 0.62 95 1012.9
20260903223114 80 142 5.0 12.0 0.00 0.62 0.62 95 1012.9
20260903222537 79 132 5.0 12.0 0.00 0.62 0.62 95 1013.0
20260903222038 79 142 4.0 9.0 0.00 0.62 0.62 95 1013.0
20260903221559 79 138 5.0 9.0 0.00 0.62 0.62 95 1013.0
20260903221039 79 137 4.0 10.0 0.00 0.62 0.62 95 1013.2
20260903220537 79 128 5.0 10.0 0.00 0.62 0.62 95 1013.3
20260903215538 78 134 4.0 8.0 0.00 0.64 0.62 95 1013.4
20260903215038 78 138 3.0 7.0 0.00 0.64 0.62 95 1013.5
20260903214559 78 139 3.0 7.0 0.00 0.64 0.62 95 1013.5
20260903214039 78 166 3.0 7.0 0.01 0.64 0.62 95 1013.5
20260903213539 78 148 1.0 5.0 0.01 0.64 0.62 95 1013.6
20260903213105 77 148 2.0 7.0 0.01 0.64 0.62 95 1013.6
20260903212539 77 112 1.0 7.0 0.01 0.64 0.62 95 1013.7
20260903212038 77 156 2.0 8.0 0.01 0.64 0.62 95 1013.7
20260903211610 77 184 1.0 8.0 0.01 0.64 0.62 95 1013.8
20260903211036 77 120 3.0 9.0 0.01 0.64 0.62 95 1013.7
20260903210541 76 132 3.0 10.0 0.01 0.64 0.62 95 1013.7
20260903210058 76 135 4.0 10.0 0.01 0.64 0.62 95 1013.7
20260903205539 76 148 6.0 10.0 0.01 0.91 0.62 95 1013.9
20260903205039 76 127 4.0 11.0 0.01 0.91 0.62 95 1013.8
20260903204559 76 120 5.0 11.0 0.01 0.91 0.62 94 1014.0
20260903204036 76 136 5.0 9.0 0.00 0.90 0.61 94 1014.0
20260903203538 76 130 4.0 8.0 0.00 0.90 0.61 95 1014.0
20260903203104 76 141 4.0 8.0 0.00 0.90 0.61 95 1014.0
20260903202536 76 148 4.0 8.0 0.00 0.90 0.61 95 1014.0
20260903202036 75 136 4.0 8.0 0.00 0.90 0.61 95 1014.1
20260903201604 75 141 4.0 7.0 0.00 0.90 0.61 95 1014.2
20260903201039 75 146 3.0 7.0 0.00 0.90 0.61 95 1014.3
20260903200539 75 153 3.0 7.0 0.00 0.90 0.61 95 1014.4
20260903200055 75 180 2.0 7.0 0.00 0.90 0.61 96 1014.5
20260903195538 74 157 3.0 7.0 0.01 0.90 0.61 95 1014.5
20260903195037 75 132 2.0 6.0 0.01 0.90 0.61 95 1014.6
20260903194603 75 122 2.0 6.0 0.01 0.90 0.61 95 1014.6
20260903194037 74 108 2.0 4.0 0.01 0.90 0.61 95 1014.7
20260903193542 74 108 0.0 4.0 0.02 0.90 0.61 95 1014.8
20260903193107 74 108 2.0 6.0 0.02 0.90 0.61 95 1014.9
20260903192539 74 108 0.0 6.0 0.02 0.90 0.61 95 1014.9
20260903192039 75 108 1.0 6.0 0.03 0.90 0.61 95 1014.9
20260903191555 74 108 1.0 6.0 0.04 0.90 0.61 95 1014.9
20260903191038 74 114 1.0 6.0 0.04 0.90 0.61 95 1015.0
20260903190538 74 123 2.0 6.0 0.05 0.90 0.61 95 1015.1
20260903190106 74 49 0.0 5.0 0.05 0.90 0.61 95 1015.2
20260903185538 74 0 1.0 5.0 0.05 0.89 0.60 95 1015.3
20260903185037 74 90 2.0 5.0 0.05 0.89 0.60 95 1015.3
20260903184602 74 54 0.0 4.0 0.06 0.89 0.60 95 1015.3
20260903184038 74 0 2.0 4.0 0.06 0.88 0.58 95 1015.4
20260903183538 74 102 2.0 5.0 0.06 0.88 0.58 95 1015.5
20260903183106 74 132 1.0 5.0 0.06 0.88 0.58 95 1015.6
20260903182538 74 76 2.0 5.0 0.05 0.87 0.58 95 1015.6
20260903182037 74 101 1.0 4.0 0.05 0.87 0.58 95 1015.7
20260903181608 74 44 2.0 4.0 0.04 0.86 0.57 95 1015.8
20260903181041 74 107 1.0 4.0 0.05 0.86 0.57 95 1015.9
20260903180540 74 0 1.0 6.0 0.04 0.85 0.56 95 1016.0
20260903180109 74 94 2.0 6.0 0.03 0.84 0.55 94 1016.0
20260903175537 74 36 1.0 3.0 0.04 0.84 0.55 94 1016.2
20260903175037 74 0 0.0 0.0 0.04 0.84 0.55 95 1016.3
20260903174609 74 0 0.0 0.0 0.03 0.83 0.54 94 1016.5
20260903174040 74 0 0.0 0.0 0.02 0.82 0.52 94 1016.5
20260903173539 74 0 0.0 2.0 0.03 0.82 0.52 94 1016.5
20260903173107 74 0 0.0 4.0 0.03 0.82 0.52 94 1016.6
20260903172538 74 0 1.0 4.0 0.03 0.82 0.52 94 1016.6
20260903172038 74 266 1.0 6.0 0.04 0.82 0.52 94 1016.7
20260903171606 74 266 2.0 6.0 0.04 0.82 0.52 94 1016.7
20260903171039 74 0 1.0 3.0 0.04 0.81 0.52 94 1016.5
20260903170539 74 0 0.0 3.0 0.05 0.81 0.52 94 1016.6
20260903165539 73 266 1.0 3.0 0.05 0.80 0.51 94 1016.6
20260903165035 73 266 0.0 3.0 0.05 0.80 0.51 94 1016.6
20260903164604 73 0 0.0 3.0 0.06 0.80 0.51 94 1016.5
20260903164035 73 271 0.0 4.0 0.06 0.80 0.51 94 1016.5
20260903163535 73 268 1.0 4.0 0.05 0.79 0.50 94 1016.5
20260903163101 73 0 2.0 4.0 0.06 0.79 0.50 94 1016.5
20260903162536 73 160 0.0 0.0 0.06 0.79 0.50 94 1016.5
20260903162037 73 0 0.0 0.0 0.05 0.78 0.49 94 1016.4
20260903161554 73 0 0.0 0.0 0.06 0.78 0.49 94 1016.5
20260903161035 73 0 0.0 0.0 0.05 0.77 0.48 94 1016.5
20260903160538 74 0 0.0 0.0 0.05 0.76 0.47 94 1016.5
20260903160106 73 0 0.0 0.0 0.06 0.76 0.47 95 1016.4
20260903155536 73 0 0.0 0.0 0.05 0.75 0.46 94 1016.4
20260903155038 73 0 0.0 0.0 0.06 0.75 0.46 94 1016.4
20260903154602 73 0 0.0 2.0 0.06 0.74 0.45 94 1016.4
20260903154035 73 0 0.0 2.0 0.07 0.74 0.45 94 1016.5
20260903153536 73 0 0.0 1.0 0.08 0.74 0.45 94 1016.5
20260903153109 73 0 0.0 4.0 0.09 0.73 0.44 94 1016.6
20260903152538 73 0 0.0 6.0 0.11 0.73 0.44 94 1016.5
20260903152039 73 0 1.0 7.0 0.12 0.73 0.44 94 1016.5
20260903151556 74 0 2.0 7.0 0.12 0.72 0.43 94 1016.6
20260903151037 74 0 0.0 5.0 0.13 0.72 0.43 94 1016.6
20260903150537 74 221 0.0 6.0 0.13 0.71 0.42 94 1016.6
20260903145536 74 158 3.0 6.0 0.12 0.70 0.41 94 1016.5
20260903145036 74 138 3.0 8.0 0.11 0.69 0.40 94 1016.5
20260903144609 73 141 4.0 10.0 0.10 0.68 0.39 93 1016.4
20260903144037 73 170 3.0 10.0 0.09 0.67 0.38 93 1016.4
20260903143538 73 155 4.0 10.0 0.08 0.66 0.37 93 1016.4
20260903143106 74 171 3.0 10.0 0.05 0.63 0.34 92 1016.3
20260903142537 74 167 4.0 15.0 0.04 0.62 0.33 92 1016.3
20260903142037 74 175 6.0 15.0 0.02 0.60 0.31 92 1016.1
20260903141609 74 146 8.0 14.0 0.02 0.60 0.31 93 1016.2
20260903141037 74 154 7.0 12.0 0.00 0.58 0.29 93 1016.3
20260903140538 75 151 5.0 9.0 0.00 0.58 0.29 94 1016.3
20260903140104 75 164 1.0 7.0 0.00 0.58 0.29 94 1016.4
20260903135537 75 164 2.0 7.0 0.00 0.58 0.29 94 1016.4
20260903135037 75 157 1.0 8.0 0.00 0.58 0.29 94 1016.3
20260903134609 75 214 4.0 9.0 0.00 0.58 0.29 94 1016.2
20260903134038 74 157 4.0 10.0 0.01 0.58 0.29 94 1016.0
20260903133541 74 142 4.0 10.0 0.01 0.58 0.29 94 1015.9
20260903133110 74 107 4.0 8.0 0.02 0.58 0.29 94 1015.7
20260903132538 74 136 3.0 8.0 0.02 0.58 0.29 94 1015.6
20260903132037 74 94 3.0 11.0 0.03 0.58 0.29 94 1015.5
20260903131601 74 134 6.0 11.0 0.05 0.58 0.29 94 1015.5
20260903131039 74 109 6.0 11.0 0.07 0.58 0.29 93 1015.4
20260903130536 74 146 5.0 12.0 0.10 0.58 0.29 93 1015.5
20260903130129 74 122 6.0 12.0 0.18 0.58 0.29 93 1015.6
20260903125539 75 109 5.0 15.0 0.29 0.58 0.29 93 1015.7
20260903125037 75 132 6.0 15.0 0.29 0.58 0.29 93 1015.7
20260903124607 76 142 7.0 13.0 0.28 0.57 0.28 93 1015.6
20260903124036 77 154 4.0 11.0 0.28 0.57 0.28 93 1015.5
20260903123536 77 103 4.0 10.0 0.28 0.57 0.28 94 1015.4
20260903123104 78 84 4.0 9.0 0.27 0.56 0.27 94 1015.4
20260903122539 78 115 2.0 7.0 0.27 0.56 0.27 94 1015.4
20260903122037 78 136 3.0 7.0 0.26 0.55 0.26 93 1015.4
20260903121555 78 137 1.0 4.0 0.24 0.52 0.24 93 1015.3
20260903121039 78 176 0.0 3.0 0.22 0.51 0.22 92 1015.2
20260903120538 78 176 1.0 4.0 0.18 0.47 0.18 92 1015.2
20260903120121 78 81 1.0 4.0 0.11 0.40 0.11 92 1015.2
20260903115536 78 0 0.0 4.0 0.00 0.29 0.00 92 1015.3
20260903115039 78 0 1.0 4.0 0.00 0.29 0.00 92 1015.1
20260903114603 78 0 0.0 4.0 0.00 0.29 0.00 92 1015.1
20260903114040 78 0 0.0 0.0 0.00 0.29 0.00 93 1015.0
20260903113539 78 0 0.0 4.0 0.00 0.29 0.00 93 1015.0
20260903113059 77 0 0.0 4.0 0.00 0.29 0.00 93 1015.0
20260903112538 77 169 1.0 4.0 0.00 0.29 0.00 93 1015.0
20260903112037 77 169 0.0 4.0 0.00 0.29 0.00 93 1014.9
20260903111604 77 169 1.0 4.0 0.00 0.29 0.00 93 1014.9
20260903111037 77 0 1.0 8.0 0.00 0.29 0.00 94 1014.8
20260903110541 77 169 3.0 8.0 0.00 0.29 0.00 94 1014.8
20260903110100 77 0 0.0 6.0 0.00 0.29 0.00 94 1014.7
20260903105541 77 72 2.0 7.0 0.00 0.29 0.00 94 1014.6
20260903105040 77 48 3.0 7.0 0.00 0.29 0.00 94 1014.4
20260903104551 77 71 2.0 5.0 0.00 0.29 0.00 93 1014.4
20260903104037 77 71 1.0 4.0 0.00 0.29 0.00 93 1014.4
20260903103537 77 0 2.0 4.0 0.00 0.29 0.00 93 1014.3
20260903103100 77 71 1.0 5.0 0.00 0.29 0.00 93 1014.2
20260903102535 77 71 1.0 5.0 0.00 0.29 0.00 93 1014.2
20260903102036 77 71 1.0 5.0 0.00 0.29 0.00 93 1014.3
20260903101558 77 71 1.0 4.0 0.00 0.29 0.00 93 1014.2
20260903101037 77 0 0.0 0.0 0.00 0.29 0.00 93 1014.1
20260903100537 77 0 0.0 0.0 0.00 0.29 0.00 93 1014.0
20260903095536 77 0 0.0 0.0 0.00 0.29 0.00 93 1014.1
20260903095038 77 0 0.0 1.0 0.00 0.29 0.00 93 1014.0
20260903094608 77 0 0.0 3.0 0.00 0.29 0.00 93 1013.9
20260903094036 77 147 0.0 3.0 0.00 0.29 0.00 93 1013.9
20260903093535 77 0 0.0 0.0 0.00 0.29 0.00 93 1014.1
20260903093058 77 0 0.0 0.0 0.00 0.29 0.00 93 1014.1
20260903092536 77 0 0.0 0.0 0.00 0.29 0.00 92 1014.0
20260903092036 77 0 0.0 0.0 0.00 0.29 0.00 92 1014.1
20260903091602 77 0 0.0 0.0 0.00 0.29 0.00 92 1014.0
20260903091037 77 0 0.0 0.0 0.00 0.29 0.00 92 1014.0
20260903090537 77 0 0.0 0.0 0.00 0.29 0.00 92 1014.0
20260903085538 77 0 0.0 0.0 0.00 0.29 0.00 92 1014.0
20260903085037 77 0 0.0 0.0 0.00 0.29 0.00 92 1014.0
20260903084553 77 0 0.0 0.0 0.00 0.29 0.00 91 1014.1
20260903084036 77 0 0.0 0.0 0.00 0.29 0.00 91 1014.0
20260903083536 77 0 0.0 0.0 0.00 0.29 0.00 91 1013.9
20260903083115 77 0 0.0 3.0 0.00 0.29 0.00 91 1013.9
20260903082536 77 0 0.0 5.0 0.00 0.29 0.00 91 1013.9
20260903082036 77 147 2.0 5.0 0.00 0.29 0.00 91 1013.9
20260903081606 77 147 1.0 4.0 0.00 0.29 0.00 91 1013.9
20260903081035 77 147 1.0 5.0 0.00 0.29 0.00 91 1013.8
20260903080539 77 147 2.0 7.0 0.00 0.29 0.00 90 1013.8
20260903080055 77 155 3.0 7.0 0.00 0.29 0.00 90 1013.8
20260903075537 77 150 3.0 6.0 0.00 0.29 0.00 90 1013.9
20260903075037 77 164 2.0 6.0 0.00 0.29 0.00 89 1013.9
20260903074610 77 127 2.0 6.0 0.00 0.29 0.00 89 1013.9
20260903074039 77 154 1.0 6.0 0.00 0.29 0.00 89 1013.9
20260903073539 77 154 1.0 6.0 0.00 0.29 0.00 88 1013.9
20260903073136 77 154 1.0 5.0 0.00 0.29 0.00 88 1013.9
20260903072539 77 184 3.0 6.0 0.00 0.29 0.00 88 1013.8
20260903072039 77 138 3.0 6.0 0.00 0.29 0.00 88 1013.8
20260903071617 77 158 3.0 6.0 0.00 0.29 0.00 88 1013.7
20260903071036 77 158 3.0 7.0 0.00 0.29 0.00 88 1013.7
20260903070537 77 174 3.0 7.0 0.00 0.29 0.00 88 1013.8
20260903070106 77 153 2.0 9.0 0.00 0.29 0.00 88 1013.7
20260903065537 77 155 3.0 9.0 0.00 0.29 0.00 88 1013.6